TimeEDT,TemperatureF,Dew PointF,Humidity,Sea Level PressureIn,VisibilityMPH,Wind Direction,Wind SpeedMPH,Gust SpeedMPH,PrecipitationIn,Events,Conditions,WindDirDegrees,DateUTC
12:15 AM,71.6,69.8,94,30.04,10.0,Calm,Calm,-,0.00,,Clear,0,2012-10-06 04:15:00
12:35 AM,71.6,69.8,94,30.04,10.0,Calm,Calm,-,0.00,,Clear,0,2012-10-06 04:35:00
12:55 AM,69.8,69.8,100,30.03,10.0,Calm,Calm,-,0.00,,Clear,0,2012-10-06 04:55:00
1:15 AM,69.8,69.8,100,30.03,9.0,Calm,Calm,-,0.00,,Clear,0,2012-10-06 05:15:00
1:35 AM,69.8,69.8,100,30.03,9.0,Calm,Calm,-,0.00,,Clear,0,2012-10-06 05:35:00
1:55 AM,69.8,69.8,100,30.03,9.0,Calm,Calm,-,0.00,,Clear,0,2012-10-06 05:55:00
2:15 AM,69.8,69.8,100,30.02,9.0,Calm,Calm,-,0.00,,Clear,0,2012-10-06 06:15:00
2:35 AM,69.8,69.8,100,30.02,8.0,Calm,Calm,-,0.00,,Clear,0,2012-10-06 06:35:00
2:55 AM,69.8,69.8,100,30.01,8.0,Calm,Calm,-,0.00,,Clear,0,2012-10-06 06:55:00
3:15 AM,69.8,69.8,100,30.01,7.0,Calm,Calm,-,0.00,,Clear,0,2012-10-06 07:15:00
3:35 AM,69.8,69.8,100,30.01,8.0,Calm,Calm,-,0.00,,Partly Cloudy,0,2012-10-06 07:35:00
3:55 AM,69.8,69.8,100,30.01,8.0,Calm,Calm,-,0.00,,Mostly Cloudy,0,2012-10-06 07:55:00
4:15 AM,71.6,71.6,100,30.00,7.0,Calm,Calm,-,0.00,,Scattered Clouds,0,2012-10-06 08:15:00
4:35 AM,71.6,71.6,100,30.00,9.0,Calm,Calm,-,0.00,,Scattered Clouds,0,2012-10-06 08:35:00
4:55 AM,71.6,71.6,100,29.99,8.0,Calm,Calm,-,0.00,,Partly Cloudy,0,2012-10-06 08:55:00
5:35 AM,71.6,71.6,100,29.99,6.0,Calm,Calm,-,0.00,,Partly Cloudy,0,2012-10-06 09:35:00
5:55 AM,71.6,71.6,100,29.99,7.0,Calm,Calm,-,0.00,,Clear,0,2012-10-06 09:55:00
6:15 AM,71.6,71.6,100,29.99,5.0,Calm,Calm,-,0.00,,Clear,0,2012-10-06 10:15:00
6:35 AM,71.6,71.6,100,29.99,4.0,Calm,Calm,-,0.00,,Clear,0,2012-10-06 10:35:00
6:50 AM,71.6,71.6,100,29.99,5.0,Calm,Calm,-,N/A,,Clear,0,2012-10-06 10:50:00
7:50 AM,71.6,71.6,100,30.01,4.0,Calm,Calm,-,N/A,,Clear,0,2012-10-06 11:50:00
8:50 AM,75.2,75.2,100,30.02,8.0,Calm,Calm,-,N/A,,Mostly Cloudy,0,2012-10-06 12:50:00
9:50 AM,75.2,73.4,94,30.02,9.0,Calm,Calm,-,N/A,,Scattered Clouds,0,2012-10-06 13:50:00
10:50 AM,78.8,73.4,83,30.02,10.0,NNW,5.8,-,N/A,,Mostly Cloudy,340,2012-10-06 14:50:00
11:50 AM,80.6,73.4,79,30.01,10.0,North,8.1,-,N/A,,Mostly Cloudy,10,2012-10-06 15:50:00
12:50 PM,80.6,73.4,79,30.00,10.0,North,8.1,-,N/A,,Mostly Cloudy,10,2012-10-06 16:50:00
1:50 PM,80.6,73.4,79,29.97,10.0,NNE,8.1,-,N/A,,Mostly Cloudy,20,2012-10-06 17:50:00
2:50 PM,77.0,75.2,94,29.96,5.0,SSE,4.6,-,N/A,Rain,Light Rain,160,2012-10-06 18:50:00
3:50 PM,80.6,71.6,74,29.94,10.0,SSE,3.5,-,N/A,,Partly Cloudy,160,2012-10-06 19:50:00
4:50 PM,80.6,73.4,79,29.92,10.0,SSE,4.6,-,N/A,,Partly Cloudy,160,2012-10-06 20:50:00
5:50 PM,80.6,73.4,79,29.93,10.0,South,4.6,-,N/A,,Clear,170,2012-10-06 21:50:00
7:50 PM,75.2,73.4,94,29.95,10.0,Calm,Calm,-,N/A,,Clear,0,2012-10-06 23:50:00
9:15 PM,75.2,73.4,94,29.97,10.0,South,3.5,-,0.00,,Clear,170,2012-10-07 01:15:00
9:35 PM,75.2,73.4,94,29.97,10.0,South,4.6,-,0.00,,Clear,170,2012-10-07 01:35:00
9:55 PM,75.2,73.4,94,29.97,10.0,South,4.6,-,0.00,,Clear,190,2012-10-07 01:55:00
10:15 PM,75.2,73.4,94,29.98,10.0,South,4.6,-,0.00,,Clear,180,2012-10-07 02:15:00
10:35 PM,75.2,73.4,94,29.98,10.0,South,4.6,-,0.00,,Clear,180,2012-10-07 02:35:00
10:55 PM,73.4,73.4,100,29.98,10.0,Calm,Calm,-,0.00,,Clear,0,2012-10-07 02:55:00
11:15 PM,73.4,73.4,100,29.98,10.0,South,3.5,-,0.00,,Clear,190,2012-10-07 03:15:00
11:35 PM,73.4,73.4,100,29.97,10.0,South,4.6,-,0.00,,Clear,180,2012-10-07 03:35:00